Hourly Weather Ciudad Bolívar

Today, 7 July, Tuesday

Time Temperature Precipitation Wind Pressure Humidity
00:00 +26°C° 1 mm 2 mps 752 mmHg 88%
01:00 +25°C° 1 mm 2 mps 752 mmHg 88%
02:00 +25°C° 1 mm 2 mps 752 mmHg 87%
03:00 +25°C° 0.4 mm 1 mps 752 mmHg 89%
04:00 +25°C° 0.4 mm 1 mps 752 mmHg 90%
05:00 +23°C° 0.4 mm 0 mps 751 mmHg 91%
06:00 +25°C° 0.4 mm 1 mps 752 mmHg 89%
07:00 +26°C° 0.4 mm 1 mps 752 mmHg 86%
08:00 +27°C° 0.4 mm 1 mps 753 mmHg 84%
09:00 +28°C° 0.1 mm 1 mps 753 mmHg 80%
10:00 +29°C° 0.1 mm 1 mps 753 mmHg 76%
11:00 +30°C° 0.1 mm 1 mps 753 mmHg 71%
12:00 +31°C° 0 mm 1 mps 753 mmHg 67%
13:00 +32°C° 0 mm 1 mps 752 mmHg 63%
14:00 +33°C° 0 mm 1 mps 752 mmHg 59%
15:00 +33°C° 0 mm 1 mps 751 mmHg 59%
16:00 +33°C° 0 mm 1 mps 751 mmHg 59%
17:00 +31°C° 0 mm 0 mps 750 mmHg 59%
18:00 +32°C° 0.3 mm 1 mps 751 mmHg 63%
19:00 +31°C° 0.3 mm 1 mps 751 mmHg 68%
20:00 +30°C° 0.3 mm 1 mps 752 mmHg 73%
21:00 +29°C° 0.7 mm 2 mps 752 mmHg 76%
22:00 +28°C° 0.7 mm 2 mps 753 mmHg 80%
23:00 +28°C° 0.7 mm 2 mps 753 mmHg 83%

Tomorrow, 8 July, Wednesday

Time Temperature Precipitation Wind Pressure Humidity
00:00 +27°C° 0.9 mm 2 mps 753 mmHg 85%
01:00 +27°C° 0.9 mm 2 mps 752 mmHg 86%
02:00 +27°C° 0.9 mm 2 mps 752 mmHg 88%
03:00 +26°C° 0.3 mm 2 mps 752 mmHg 89%
04:00 +26°C° 0.3 mm 2 mps 752 mmHg 90%
05:00 +26°C° 0.3 mm 2 mps 752 mmHg 90%
06:00 +27°C° 0.1 mm 2 mps 752 mmHg 87%
07:00 +27°C° 0.1 mm 2 mps 753 mmHg 84%
08:00 +28°C° 0.1 mm 2 mps 753 mmHg 81%
09:00 +30°C° 0.2 mm 2 mps 753 mmHg 73%
10:00 +31°C° 0.2 mm 3 mps 753 mmHg 65%
11:00 +34°C° 0.2 mm 3 mps 753 mmHg 57%
12:00 +34°C° 0 mm 3 mps 752 mmHg 55%
13:00 +35°C° 0 mm 3 mps 752 mmHg 53%
14:00 +35°C° 0 mm 3 mps 751 mmHg 51%
15:00 +35°C° 0.2 mm 3 mps 751 mmHg 54%
16:00 +34°C° 0.2 mm 3 mps 750 mmHg 56%
17:00 +34°C° 0.2 mm 3 mps 750 mmHg 59%
18:00 +31°C° 0.5 mm 3 mps 750 mmHg 65%
19:00 +30°C° 0.5 mm 3 mps 751 mmHg 72%
20:00 +28°C° 0.5 mm 4 mps 751 mmHg 79%
21:00 +28°C° 0 mm 4 mps 752 mmHg 81%
22:00 +27°C° 0 mm 4 mps 752 mmHg 83%
23:00 +27°C° 0 mm 4 mps 753 mmHg 84%

Day after tomorrow, 9 July, Thursday

Time Temperature Precipitation Wind Pressure Humidity
00:00 +27°C° 0 mm 4 mps 752 mmHg 86%
01:00 +26°C° 0 mm 3 mps 752 mmHg 88%
02:00 +26°C° 0 mm 3 mps 752 mmHg 89%
03:00 +26°C° 0 mm 2 mps 752 mmHg 90%
04:00 +25°C° 0 mm 2 mps 752 mmHg 91%
05:00 +25°C° 0 mm 2 mps 752 mmHg 92%
06:00 +26°C° 0 mm 2 mps 752 mmHg 88%
07:00 +27°C° 0 mm 3 mps 753 mmHg 84%
08:00 +27°C° 0 mm 3 mps 753 mmHg 81%
09:00 +29°C° 0.1 mm 3 mps 753 mmHg 74%
10:00 +32°C° 0.1 mm 4 mps 753 mmHg 67%
11:00 +33°C° 0.1 mm 4 mps 753 mmHg 60%
12:00 +34°C° 0.1 mm 4 mps 752 mmHg 57%
13:00 +34°C° 0.1 mm 4 mps 751 mmHg 55%
14:00 +35°C° 0.1 mm 4 mps 750 mmHg 52%
15:00 +35°C° 0 mm 4 mps 750 mmHg 52%
16:00 +34°C° 0 mm 4 mps 750 mmHg 53%
17:00 +34°C° 0 mm 5 mps 749 mmHg 54%
18:00 +33°C° 0 mm 5 mps 750 mmHg 59%
19:00 +30°C° 0 mm 5 mps 751 mmHg 63%
20:00 +29°C° 0 mm 5 mps 751 mmHg 68%
21:00 +29°C° 0 mm 5 mps 752 mmHg 71%
22:00 +28°C° 0 mm 5 mps 752 mmHg 75%
23:00 +27°C° 0 mm 4 mps 752 mmHg 78%

10 July, Friday

Time Temperature Precipitation Wind Pressure Humidity
00:00 +27°C° 0 mm 4 mps 752 mmHg 80%
01:00 +27°C° 0 mm 4 mps 752 mmHg 82%
02:00 +26°C° 0 mm 3 mps 752 mmHg 83%
03:00 +26°C° 0 mm 3 mps 752 mmHg 85%
04:00 +26°C° 0 mm 3 mps 752 mmHg 86%
05:00 +26°C° 0 mm 2 mps 752 mmHg 87%
06:00 +27°C° 0 mm 3 mps 753 mmHg 85%
07:00 +27°C° 0 mm 3 mps 753 mmHg 82%
08:00 +28°C° 0 mm 3 mps 753 mmHg 79%
09:00 +29°C° 0 mm 3 mps 753 mmHg 73%
10:00 +31°C° 0 mm 3 mps 753 mmHg 67%
11:00 +33°C° 0 mm 3 mps 753 mmHg 61%
12:00 +34°C° 0 mm 3 mps 752 mmHg 57%
13:00 +34°C° 0 mm 3 mps 752 mmHg 53%
14:00 +35°C° 0 mm 2 mps 751 mmHg 50%
15:00 +35°C° 0.1 mm 3 mps 751 mmHg 52%
16:00 +35°C° 0.1 mm 3 mps 750 mmHg 54%
17:00 +34°C° 0.1 mm 4 mps 750 mmHg 56%
18:00 +33°C° 0.6 mm 4 mps 751 mmHg 63%
19:00 +30°C° 0.6 mm 4 mps 751 mmHg 70%
20:00 +28°C° 0.6 mm 4 mps 752 mmHg 78%
21:00 +28°C° 0.6 mm 4 mps 752 mmHg 80%
22:00 +28°C° 0.6 mm 4 mps 753 mmHg 81%
23:00 +28°C° 0.6 mm 4 mps 753 mmHg 83%

11 July, Saturday

Time Temperature Precipitation Wind Pressure Humidity
00:00 +27°C° 1 mm 4 mps 752 mmHg 84%
01:00 +27°C° 1 mm 4 mps 752 mmHg 86%
02:00 +27°C° 1 mm 3 mps 751 mmHg 87%
03:00 +27°C° 0.8 mm 3 mps 751 mmHg 87%
04:00 +27°C° 0.8 mm 2 mps 751 mmHg 88%
05:00 +26°C° 0.8 mm 1 mps 751 mmHg 89%
06:00 +27°C° 1.1 mm 1 mps 752 mmHg 87%
07:00 +27°C° 1.1 mm 1 mps 752 mmHg 86%
08:00 +28°C° 1.1 mm 1 mps 753 mmHg 85%
09:00 +28°C° 2 mm 2 mps 753 mmHg 81%
10:00 +29°C° 2 mm 2 mps 753 mmHg 77%
11:00 +30°C° 2 mm 3 mps 753 mmHg 73%
12:00 +31°C° 1.4 mm 2 mps 752 mmHg 71%
13:00 +31°C° 1.4 mm 2 mps 752 mmHg 69%
14:00 +32°C° 1.4 mm 2 mps 751 mmHg 67%
15:00 +32°C° 2.3 mm 2 mps 751 mmHg 69%
16:00 +31°C° 2.3 mm 1 mps 750 mmHg 71%
17:00 +31°C° 2.3 mm 1 mps 750 mmHg 72%
18:00 +29°C° 5.7 mm 2 mps 751 mmHg 79%
19:00 +28°C° 5.7 mm 2 mps 751 mmHg 86%
20:00 +27°C° 5.7 mm 2 mps 752 mmHg 93%
21:00 +26°C° 4.7 mm 2 mps 752 mmHg 93%
22:00 +26°C° 4.7 mm 2 mps 753 mmHg 93%
23:00 +26°C° 4.7 mm 2 mps 753 mmHg 93%

12 July, Sunday

Time Temperature Precipitation Wind Pressure Humidity
00:00 +26°C° 0.7 mm 2 mps 753 mmHg 93%
01:00 +26°C° 0.7 mm 2 mps 752 mmHg 93%
02:00 +26°C° 0.7 mm 2 mps 752 mmHg 93%
03:00 +26°C° 0.1 mm 1 mps 752 mmHg 93%
04:00 +25°C° 0.1 mm 1 mps 752 mmHg 93%
05:00 +25°C° 0.1 mm 1 mps 752 mmHg 93%
06:00 +26°C° 0.3 mm 1 mps 753 mmHg 90%
07:00 +27°C° 0.3 mm 2 mps 753 mmHg 87%
08:00 +27°C° 0.3 mm 2 mps 753 mmHg 84%
09:00 +29°C° 0.3 mm 2 mps 753 mmHg 78%
10:00 +30°C° 0.3 mm 3 mps 753 mmHg 73%
11:00 +31°C° 0.3 mm 3 mps 753 mmHg 67%
12:00 +33°C° 0.5 mm 3 mps 753 mmHg 65%
13:00 +33°C° 0.5 mm 3 mps 752 mmHg 62%
14:00 +34°C° 0.5 mm 2 mps 751 mmHg 60%
15:00 +32°C° 0.7 mm 2 mps 751 mmHg 62%
16:00 +32°C° 0.7 mm 2 mps 751 mmHg 64%
17:00 +32°C° 0.7 mm 2 mps 750 mmHg 65%
18:00 +30°C° 1.8 mm 3 mps 751 mmHg 72%
19:00 +29°C° 1.8 mm 4 mps 752 mmHg 78%
20:00 +28°C° 1.8 mm 4 mps 752 mmHg 84%
21:00 +27°C° 0.1 mm 4 mps 753 mmHg 86%
22:00 +27°C° 0.1 mm 4 mps 753 mmHg 87%
23:00 +27°C° 0.1 mm 3 mps 754 mmHg 89%
Show more